Погода в Озерках

Россия / Тверская область     56°38′36″N   36°12′48″E
темп.,
°C
ветер,
м/с
пор.,
м/с
влажн.,
%
обл.,
%
осадки,
мм/ч
давл.,
гПа
погр.,
м
4 марта, чт
чт400:00−1зюз51392100 0.0 1004479
03:00+1з71497100 0.3 1001840
06:00+1з81497100 0.9 999904
09:00−1сз51185100 1.3 1000740
12:000сз587281 0.0 10001151
15:000сз467090 0.0 10001249
18:00−4с348436 0.0 100178
21:00−6ссз228818 0.0 100223
5 марта, пт
пт500:00−7зсз12910 0.0 100321
03:00−7з22929 0.0 100428
06:00−6сз379388 0.1 1005375
09:00−7сз489069 0.1 1007516
12:00−5сз467998 0.0 1008882
15:00−4сз467399 0.1 10101098
18:00−6зсз2382100 0.1 101135
21:00−8сз238677 0.1 101347
6 марта, сб
сб600:00−9с369069 0.0 1015195
03:00−12с229145 0.0 101630
06:00−12сз22912 0.0 101732
09:00−10сз24891 0.0 1018223
12:00−7зсз347520 0.0 1017737
15:00−5з456860 0.1 10161101
18:00−7зюз368093 0.1 1014163
21:00−7юз4118384 0.1 1012407
7 марта, вс
вс700:00−6юз71488100 0.1 1007898
03:00−5юз81592100 1.0 10021042
06:00−4юз81593100 1.1 9961111
09:00−3юз81593100 3.2 9931129
12:00−4сз4984100 1.3 992679
15:00−3з3559100 1.3 9921570
18:00−7зюз367199 0.5 994100
21:00−9зсз5128083 1.0 995504
8 марта, пн
пн800:00−9з498571 0.0 995388
03:00−10сз5108985 0.0 997472
06:00−11сз51186100 0.0 1000524
09:00−11зсз5108761 0.0 1003717
12:00−9сз5879100 0.1 1006999
15:00−8сз5780100 0.2 10081039
18:00−10ссз4985100 0.1 1011613
21:00−12ссз51089100 0.1 1014733